OBJECT Q, 43772

Orbit data source: Space-Track

You're viewing an Uncataloged Satellite

Recently launched and/or uncataloged satellites may have evolving metadata. Metadata may include but not limited to: Owner, Maufacturer, Bus, Motor, and Mission.

OBJECT Q, 43772 is a satellite in SSO that was launched on Mon, 03 Dec 2018 UTC via an FALCON 9 launch vehicle from the Air Force Western Test Range (AFWTR). Unknown objects in Earth's orbit typically refer to objects detected orbiting the Earth but have not yet been identified or cataloged. These objects could be anything from previously untracked satellites, spent rocket stages, debris from satellite collisions, or even natural meteoroids temporarily captured by Earth's gravity.

Loading next visibility...
Identifier
43772, 2018-099Q
Orbit
SSO
Country
Flag of TBDTBD
Related business
Manufacturer
GaTech
Mission
Non-operational Amateur Technology
Bus & Motor
CUBESAT 1.5U, Unknown motor
Mass
2 kg wet, 2 kg dry
Launch date (UTC)
2018-12-03 (7 years ago)
Launch vehicle
FALCON 9
Launch site
Air Force Western Test Range (AFWTR)
Object type
Unknown
Shape & HBR
Box + 2 Pan, 0.1 m
Radar Cross Section
0.025 m², Medium (>0.1 m² and < 1m²)

Expand to show TLE details & history
Last TLE update: 13 hours ago

TLE from 13 hours ago
0 OBJECT Q
1 43772U 18099Q   26034.46195398  .00069386  00000-0  11559-2 0  9995
2 43772  97.4377 108.5442 0002220 317.8469  42.2612 15.51773669393732
Epoch: 2026-02-03T11:05Z
TLE epoch observation values (Epoch: 2026-02-03T11:05:12.823Z)
Latitude
-0.00007°
Longitude
168.59823°
Altitude
413.564 km
Speed
7.663 km/s
True Right ascension
07h 14m 10s
True Declination
0° 00' 00"
Sunlit
Object was in full shadow at epoch
Visualization orbit readout
Latitude
Unknown
Longitude
Unknown
Altitude
Unknown
Speed
Unknown
Apparent Right ascension
Unknown
Apparent Declination
Unknown
Sunlit
N/A
Visualization observer readout
Local Sidereal Time
02:02:29
Azimuth
Unknown
Elevation
Unknown
Doppler factor
Unknown
Orbital elements
Apogee altitude
409.979 km
Perigee altitude
406.966 km
Semi-major axis
6,786.609 km
Eccentricity
0.00022
Inclination
97.4377°
RAAN
108.5442°
Arg. of periapsis
317.8469°
True anomaly
42.27831°
Mean anomaly
42.2612°
Eccentric anomaly
42.26976°
Mean motion
3.88207 °/min
Orbital period
92.73 mins
BSTAR
0.0011559
Loading maneuver chart data...
Computing Atmospheric mass density...
Loading historical data...
Loading historical data...
Loading historical data...
Loading historical data...
Loading historical data...
Loading historical data...
Loading historical data...

Documentation

Showing up to 5 results
|